Flag for Canada Weather past 2 weeks in St. Albert, Alberta, Canada

Now
28 °F

Mostly cloudy.


Feels Like: 19 °F
Forecast: 27 / 37 °F
Wind: 10 mph from South

Location: Edmonton Municipal


UV Index: 3 (Moderate)

Visibility: 9 mi


Pressure: 30.19 "Hg

Humidity: 59%

Dew point: 16 °F

Location of St. AlbertLocation

Historic Weather in St. Albert

°F

St. Albert temperature yesterday

Maximum temperature yesterday: 45 °F (at 12:00 AM)
Minimum temperature yesterday: 28 °F (at 11:00 PM)
Average temperature yesterday: 35 °F

Past Weeks' High & Low Weather Summary

 TemperatureHumidityPressure
High66 °F (Apr 8, 4:00 PM)68% (Apr 16, 6:00 AM)30.50 "Hg (Apr 16, 6:00 AM)
Low12 °F (Apr 3, 7:00 AM)23% (Apr 14, 6:00 PM)29.54 "Hg (Apr 8, 7:00 PM)
Average36 °F45%29.95 "Hg
* Reported Apr 1 10:00 AM — Apr 16 10:00 AM, St. Albert, Weather by CustomWeather, © 2014

Note: Actual official high and low records may vary slightly from our data, if they occured in-between our weather recording intervals... More about our weather records

Advertising

Historic Weather Conditions — Data for Previous 24 hours

 ConditionsComfort  
Time TempWeatherWind HumidityBarometerVisibility
10:00 AM
Apr 16
28 °FOvercast.10 mph59%30.19 "Hg9 mi
9:00 AM28 °FOvercast.2 mph55%30.19 "Hg9 mi
8:00 AM28 °FOvercast.No wind59%30.19 "Hg9 mi
7:49 AM28 °FMore clouds than sun.No wind64%30.09 "Hg9 mi
7:00 AM25 °FOvercast.2 mph63%30.18 "Hg9 mi
6:00 AM23 °FMostly cloudy.3 mph68%30.18 "Hg9 mi
5:00 AM25 °FMostly cloudy.5 mph63%30.16 "Hg9 mi
4:00 AM27 °FPassing clouds.5 mph64%30.16 "Hg9 mi
3:00 AM27 °FOvercast.6 mph64%30.16 "Hg9 mi
2:00 AM27 °FLow clouds.5 mph64%30.15 "Hg9 mi
1:00 AM27 °FLow clouds.7 mph64%30.14 "Hg9 mi
12:00 AM27 °FOvercast.9 mph64%30.13 "Hg9 mi
11:00 PM
Apr 15
28 °FPassing clouds.9 mph59%30.12 "Hg9 mi
10:00 PM30 °FMostly cloudy.8 mph64%30.10 "Hg7 mi
9:53 PM30 °FMostly cloudy.7 mph64%30.01 "Hg5 mi
9:00 PM30 °FLight snow. Partly sunny.12 mph64%30.07 "Hg2 mi
8:56 PM30 °FLight snow. Overcast.12 mph64%29.99 "Hg2 mi
8:00 PM30 °FLight snow. Ice fog.12 mph64%30.04 "Hg1 mi
7:47 PM32 °FLight snow. Dense fog.8 mph60%29.95 "Hg1 mi
7:03 PM32 °FLight snow. Low clouds.14 mph64%29.93 "Hg2 mi
5:00 PM36 °FMostly cloudy.16 mph60%29.96 "Hg9 mi
4:01 PM36 °FMostly cloudy.13 mph60%29.86 "Hg9 mi
3:00 PM36 °FLight rain. Light fog.9 mph65%29.91 "Hg5 mi
2:02 PM39 °FMostly cloudy.14 mph56%29.81 "Hg9 mi
1:00 PM41 °FMostly cloudy.9 mph42%29.85 "Hg9 mi
12:00 PM41 °FOvercast.7 mph42%29.84 "Hg9 mi
11:00 AM39 °FScattered clouds.7 mph45%29.83 "Hg9 mi
Weather by CustomWeather, © 2014

See weather overview